ROBUSTA-3A (MEDITERRAN*)

Last updated on Sun Dec 07 2025 00:03:50 GMT+0000 (Coordinated Universal Time)

1 60243U 24128J 25340.63298467 .00011458 00000+0 72539-3 0 9998 2 60243 61.9850 167.4438 0056345 89.8781 270.8769 15.08083611 77346
UTC large
Height (km)
Speed (km/s)
/
Latitude / Longitude
Inclination (degrees)
Orbital Period (minutes)
Azimuth
Elevation
Range (km)
Doppler Factor

Next 0 passes for location: London (51.5072 / 0.1276)

Sorry there are no passes over London.